Year,Month,Day,Hour,Minute,Value (Times are PST for windgust in km/hr)
2006,09,17,00,00,1.60
2006,09,17,00,01,0.00
2006,09,17,00,02,0.00
2006,09,17,00,03,0.00
2006,09,17,00,04,3.20
2006,09,17,00,05,3.20
2006,09,17,00,06,3.20
2006,09,17,00,07,3.20
2006,09,17,00,08,1.60
2006,09,17,00,09,0.00
2006,09,17,00,10,1.60
2006,09,17,00,11,3.20
2006,09,17,00,12,3.20
2006,09,17,00,13,3.20
2006,09,17,00,14,1.60
2006,09,17,00,15,1.60
2006,09,17,00,16,0.00
2006,09,17,00,17,0.00
2006,09,17,00,18,0.00
2006,09,17,00,19,1.60
2006,09,17,00,20,1.60
2006,09,17,00,21,1.60
2006,09,17,00,22,1.60
2006,09,17,00,23,1.60
2006,09,17,00,24,1.60
2006,09,17,00,25,3.20
2006,09,17,00,26,4.80
2006,09,17,00,27,4.80
2006,09,17,00,28,4.80
2006,09,17,00,29,3.20
2006,09,17,00,30,3.20
2006,09,17,00,31,1.60
2006,09,17,00,32,1.60
2006,09,17,00,33,3.20
2006,09,17,00,34,4.80
2006,09,17,00,35,4.80
2006,09,17,00,36,3.20
2006,09,17,00,37,4.80
2006,09,17,00,38,3.20
2006,09,17,00,39,4.80
2006,09,17,00,40,3.20
2006,09,17,00,41,1.60
2006,09,17,00,42,0.00
2006,09,17,00,43,0.00
2006,09,17,00,44,1.60
2006,09,17,00,45,0.00
2006,09,17,00,46,3.20
2006,09,17,00,47,3.20
2006,09,17,00,48,1.60
2006,09,17,00,49,1.60
2006,09,17,00,50,3.20
2006,09,17,00,51,3.20
2006,09,17,00,52,1.60
2006,09,17,00,53,1.60
2006,09,17,00,54,3.20
2006,09,17,00,55,3.20
2006,09,17,00,56,3.20
2006,09,17,00,57,1.60
2006,09,17,00,58,1.60
2006,09,17,00,59,1.60
2006,09,17,01,00,1.60
2006,09,17,01,01,1.60
2006,09,17,01,02,0.00
2006,09,17,01,03,1.60
2006,09,17,01,04,1.60
2006,09,17,01,05,1.60
2006,09,17,01,06,1.60
2006,09,17,01,07,0.00
2006,09,17,01,08,0.00
2006,09,17,01,09,0.00
2006,09,17,01,10,0.00
2006,09,17,01,11,0.00
2006,09,17,01,12,1.60
2006,09,17,01,13,1.60
2006,09,17,01,14,1.60
2006,09,17,01,15,1.60
2006,09,17,01,16,1.60
2006,09,17,01,17,1.60
2006,09,17,01,18,1.60
2006,09,17,01,19,1.60
2006,09,17,01,20,3.20
2006,09,17,01,21,3.20
2006,09,17,01,22,3.20
2006,09,17,01,23,1.60
2006,09,17,01,24,1.60
2006,09,17,01,25,1.60
2006,09,17,01,26,0.00
2006,09,17,01,27,0.00
2006,09,17,01,28,3.20
2006,09,17,01,29,3.20
2006,09,17,01,30,1.60
2006,09,17,01,31,0.00
2006,09,17,01,32,0.00
2006,09,17,01,33,0.00
2006,09,17,01,34,1.60
2006,09,17,01,35,0.00
2006,09,17,01,36,3.20
2006,09,17,01,37,1.60
2006,09,17,01,38,1.60
2006,09,17,01,39,0.00
2006,09,17,01,40,0.00
2006,09,17,01,41,1.60
2006,09,17,01,42,0.00
2006,09,17,01,43,0.00
2006,09,17,01,44,0.00
2006,09,17,01,45,1.60
2006,09,17,01,46,1.60
2006,09,17,01,47,1.60
2006,09,17,01,48,0.00
2006,09,17,01,49,0.00
2006,09,17,01,50,0.00
2006,09,17,01,51,1.60
2006,09,17,01,52,1.60
2006,09,17,01,53,1.60
2006,09,17,01,54,3.20
2006,09,17,01,55,1.60
2006,09,17,01,56,3.20
2006,09,17,01,57,1.60
2006,09,17,01,58,0.00
2006,09,17,01,59,0.00
2006,09,17,02,00,0.00
2006,09,17,02,01,0.00
2006,09,17,02,02,1.60
2006,09,17,02,03,1.60
2006,09,17,02,04,1.60
2006,09,17,02,05,1.60
2006,09,17,02,06,1.60
2006,09,17,02,07,1.60
2006,09,17,02,08,1.60
2006,09,17,02,09,0.00
2006,09,17,02,10,1.60
2006,09,17,02,11,1.60
2006,09,17,02,12,1.60
2006,09,17,02,13,1.60
2006,09,17,02,14,1.60
2006,09,17,02,15,1.60
2006,09,17,02,16,0.00
2006,09,17,02,17,0.00
2006,09,17,02,18,0.00
2006,09,17,02,19,0.00
2006,09,17,02,20,1.60
2006,09,17,02,21,3.20
2006,09,17,02,22,3.20
2006,09,17,02,23,3.20
2006,09,17,02,24,1.60
2006,09,17,02,25,1.60
2006,09,17,02,26,0.00
2006,09,17,02,27,0.00
2006,09,17,02,28,0.00
2006,09,17,02,29,1.60
2006,09,17,02,30,1.60
2006,09,17,02,31,1.60
2006,09,17,02,32,1.60
2006,09,17,02,33,3.20
2006,09,17,02,34,3.20
2006,09,17,02,35,3.20
2006,09,17,02,36,3.20
2006,09,17,02,37,3.20
2006,09,17,02,38,3.20
2006,09,17,02,39,3.20
2006,09,17,02,40,3.20
2006,09,17,02,41,3.20
2006,09,17,02,42,3.20
2006,09,17,02,43,1.60
2006,09,17,02,44,1.60
2006,09,17,02,45,1.60
2006,09,17,02,46,1.60
2006,09,17,02,47,1.60
2006,09,17,02,48,1.60
2006,09,17,02,49,1.60
2006,09,17,02,50,1.60
2006,09,17,02,51,1.60
2006,09,17,02,52,1.60
2006,09,17,02,53,1.60
2006,09,17,02,54,1.60
2006,09,17,02,55,1.60
2006,09,17,02,56,1.60
2006,09,17,02,57,1.60
2006,09,17,02,58,1.60
2006,09,17,02,59,3.20
2006,09,17,03,00,1.60
2006,09,17,03,01,1.60
2006,09,17,03,02,1.60
2006,09,17,03,03,3.20
2006,09,17,03,04,1.60
2006,09,17,03,05,1.60
2006,09,17,03,06,1.60
2006,09,17,03,07,3.20
2006,09,17,03,08,3.20
2006,09,17,03,09,3.20
2006,09,17,03,10,3.20
2006,09,17,03,11,3.20
2006,09,17,03,12,3.20
2006,09,17,03,13,3.20
2006,09,17,03,14,3.20
2006,09,17,03,15,3.20
2006,09,17,03,16,1.60
2006,09,17,03,17,1.60
2006,09,17,03,18,1.60
2006,09,17,03,19,1.60
2006,09,17,03,20,0.00
2006,09,17,03,21,0.00
2006,09,17,03,22,1.60
2006,09,17,03,23,1.60
2006,09,17,03,24,0.00
2006,09,17,03,25,0.00
2006,09,17,03,26,0.00
2006,09,17,03,27,0.00
2006,09,17,03,28,0.00
2006,09,17,03,29,0.00
2006,09,17,03,30,0.00
2006,09,17,03,31,0.00
2006,09,17,03,32,1.60
2006,09,17,03,33,0.00
2006,09,17,03,34,0.00
2006,09,17,03,35,0.00
2006,09,17,03,36,0.00
2006,09,17,03,37,0.00
2006,09,17,03,38,0.00
2006,09,17,03,39,0.00
2006,09,17,03,40,0.00
2006,09,17,03,41,0.00
2006,09,17,03,42,0.00
2006,09,17,03,43,0.00
2006,09,17,03,44,3.20
2006,09,17,03,45,3.20
2006,09,17,03,46,1.60
2006,09,17,03,47,0.00
2006,09,17,03,48,0.00
2006,09,17,03,49,1.60
2006,09,17,03,50,1.60
2006,09,17,03,51,3.20
2006,09,17,03,52,3.20
2006,09,17,03,53,3.20
2006,09,17,03,54,1.60
2006,09,17,03,55,0.00
2006,09,17,03,56,1.60
2006,09,17,03,57,0.00
2006,09,17,03,58,0.00
2006,09,17,03,59,1.60
2006,09,17,04,00,0.00
2006,09,17,04,01,0.00
2006,09,17,04,02,1.60
2006,09,17,04,03,1.60
2006,09,17,04,04,1.60
2006,09,17,04,05,1.60
2006,09,17,04,06,3.20
2006,09,17,04,07,1.60
2006,09,17,04,08,3.20
2006,09,17,04,09,1.60
2006,09,17,04,10,0.00
2006,09,17,04,11,0.00
2006,09,17,04,12,0.00
2006,09,17,04,13,0.00
2006,09,17,04,14,0.00
2006,09,17,04,15,0.00
2006,09,17,04,16,0.00
2006,09,17,04,17,1.60
2006,09,17,04,18,0.00
2006,09,17,04,19,6.40
2006,09,17,04,20,1.60
2006,09,17,04,21,0.00
2006,09,17,04,22,1.60
2006,09,17,04,23,3.20
2006,09,17,04,24,3.20
2006,09,17,04,25,4.80
2006,09,17,04,26,4.80
2006,09,17,04,27,4.80
2006,09,17,04,28,6.40
2006,09,17,04,29,4.80
2006,09,17,04,30,6.40
2006,09,17,04,31,3.20
2006,09,17,04,32,4.80
2006,09,17,04,33,3.20
2006,09,17,04,34,4.80
2006,09,17,04,35,4.80
2006,09,17,04,36,6.40
2006,09,17,04,37,4.80
2006,09,17,04,38,1.60
2006,09,17,04,39,3.20
2006,09,17,04,40,3.20
2006,09,17,04,41,3.20
2006,09,17,04,42,4.80
2006,09,17,04,43,6.40
2006,09,17,04,44,3.20
2006,09,17,04,45,8.10
2006,09,17,04,46,3.20
2006,09,17,04,47,4.80
2006,09,17,04,48,1.60
2006,09,17,04,49,8.10
2006,09,17,04,50,6.40
2006,09,17,04,51,3.20
2006,09,17,04,52,8.10
2006,09,17,04,53,9.60
2006,09,17,04,54,8.10
2006,09,17,04,55,4.80
2006,09,17,04,56,3.20
2006,09,17,04,57,1.60
2006,09,17,04,58,4.80
2006,09,17,04,59,9.60
2006,09,17,05,00,3.20
2006,09,17,05,01,3.20
2006,09,17,05,02,8.10
2006,09,17,05,03,4.80
2006,09,17,05,04,6.40
2006,09,17,05,05,4.80
2006,09,17,05,06,1.60
2006,09,17,05,07,9.60
2006,09,17,05,08,4.80
2006,09,17,05,09,6.40
2006,09,17,05,10,0.00
2006,09,17,05,11,4.80
2006,09,17,05,12,4.80
2006,09,17,05,13,8.10
2006,09,17,05,14,4.80
2006,09,17,05,15,6.40
2006,09,17,05,16,3.20
2006,09,17,05,17,3.20
2006,09,17,05,18,1.60
2006,09,17,05,19,1.60
2006,09,17,05,20,1.60
2006,09,17,05,21,1.60
2006,09,17,05,22,3.20
2006,09,17,05,23,1.60
2006,09,17,05,24,3.20
2006,09,17,05,25,3.20
2006,09,17,05,26,3.20
2006,09,17,05,27,4.80
2006,09,17,05,28,4.80
2006,09,17,05,29,4.80
2006,09,17,05,30,3.20
2006,09,17,05,31,4.80
2006,09,17,05,32,3.20
2006,09,17,05,33,3.20
2006,09,17,05,34,3.20
2006,09,17,05,35,3.20
2006,09,17,05,36,3.20
2006,09,17,05,37,6.40
2006,09,17,05,38,3.20
2006,09,17,05,39,1.60
2006,09,17,05,40,0.00
2006,09,17,05,41,1.60
2006,09,17,05,42,0.00
2006,09,17,05,43,0.00
2006,09,17,05,44,0.00
2006,09,17,05,45,0.00
2006,09,17,05,46,1.60
2006,09,17,05,47,0.00
2006,09,17,05,48,1.60
2006,09,17,05,49,3.20
2006,09,17,05,50,4.80
2006,09,17,05,51,4.80
2006,09,17,05,52,6.40
2006,09,17,05,53,3.20
2006,09,17,05,54,1.60
2006,09,17,05,55,8.10
2006,09,17,05,56,3.20
2006,09,17,05,57,4.80
2006,09,17,05,58,4.80
2006,09,17,05,59,3.20
2006,09,17,06,00,3.20
2006,09,17,06,01,8.10
2006,09,17,06,02,3.20
2006,09,17,06,03,3.20
2006,09,17,06,04,1.60
2006,09,17,06,05,8.10
2006,09,17,06,06,3.20
2006,09,17,06,07,3.20
2006,09,17,06,08,8.10
2006,09,17,06,09,6.40
2006,09,17,06,10,3.20
2006,09,17,06,11,4.80
2006,09,17,06,12,3.20
2006,09,17,06,13,3.20
2006,09,17,06,14,3.20
2006,09,17,06,15,0.00
2006,09,17,06,16,0.00
2006,09,17,06,17,1.60
2006,09,17,06,18,1.60
2006,09,17,06,19,8.10
2006,09,17,06,20,3.20
2006,09,17,06,21,1.60
2006,09,17,06,22,4.80
2006,09,17,06,23,4.80
2006,09,17,06,24,4.80
2006,09,17,06,25,3.20
2006,09,17,06,26,3.20
2006,09,17,06,27,3.20
2006,09,17,06,28,1.60
2006,09,17,06,29,1.60
2006,09,17,06,30,1.60
2006,09,17,06,31,1.60
2006,09,17,06,32,4.80
2006,09,17,06,33,4.80
2006,09,17,06,34,3.20
2006,09,17,06,35,4.80
2006,09,17,06,36,3.20
2006,09,17,06,37,6.40
2006,09,17,06,38,11.30
2006,09,17,06,39,3.20
2006,09,17,06,40,4.80
2006,09,17,06,41,9.60
2006,09,17,06,42,3.20
2006,09,17,06,43,4.80
2006,09,17,06,44,1.60
2006,09,17,06,45,6.40
2006,09,17,06,46,4.80
2006,09,17,06,47,3.20
2006,09,17,06,48,3.20
2006,09,17,06,49,4.80
2006,09,17,06,50,8.10
2006,09,17,06,51,4.80
2006,09,17,06,52,8.10
2006,09,17,06,53,3.20
2006,09,17,06,54,4.80
2006,09,17,06,55,3.20
2006,09,17,06,56,9.60
2006,09,17,06,57,3.20
2006,09,17,06,58,6.40
2006,09,17,06,59,8.10
2006,09,17,07,00,4.80
2006,09,17,07,01,6.40
2006,09,17,07,02,4.80
2006,09,17,07,03,6.40
2006,09,17,07,04,6.40
2006,09,17,07,05,8.10
2006,09,17,07,06,3.20
2006,09,17,07,07,4.80
2006,09,17,07,08,6.40
2006,09,17,07,09,6.40
2006,09,17,07,10,8.10
2006,09,17,07,11,4.80
2006,09,17,07,12,8.10
2006,09,17,07,13,6.40
2006,09,17,07,14,6.40
2006,09,17,07,15,6.40
2006,09,17,07,16,11.30
2006,09,17,07,17,6.40
2006,09,17,07,18,8.10
2006,09,17,07,19,4.80
2006,09,17,07,20,4.80
2006,09,17,07,21,1.60
2006,09,17,07,22,1.60
2006,09,17,07,23,8.10
2006,09,17,07,24,9.60
2006,09,17,07,25,4.80
2006,09,17,07,26,4.80
2006,09,17,07,27,11.30
2006,09,17,07,28,9.60
2006,09,17,07,29,6.40
2006,09,17,07,30,8.10
2006,09,17,07,31,6.40
2006,09,17,07,32,6.40
2006,09,17,07,33,4.80
2006,09,17,07,34,4.80
2006,09,17,07,35,9.60
2006,09,17,07,36,6.40
2006,09,17,07,37,6.40
2006,09,17,07,38,4.80
2006,09,17,07,39,8.10
2006,09,17,07,40,3.20
2006,09,17,07,41,6.40
2006,09,17,07,42,8.10
2006,09,17,07,43,6.40
2006,09,17,07,44,4.80
2006,09,17,07,45,8.10
2006,09,17,07,46,11.30
2006,09,17,07,47,6.40
2006,09,17,07,48,6.40
2006,09,17,07,49,11.30
2006,09,17,07,50,8.10
2006,09,17,07,51,6.40
2006,09,17,07,52,6.40
2006,09,17,07,53,6.40
2006,09,17,07,54,8.10
2006,09,17,07,55,8.10
2006,09,17,07,56,4.80
2006,09,17,07,57,8.10
2006,09,17,07,58,11.30
2006,09,17,07,59,6.40
2006,09,17,08,00,4.80
2006,09,17,08,01,3.20
2006,09,17,08,02,4.80
2006,09,17,08,03,8.10
2006,09,17,08,04,4.80
2006,09,17,08,05,4.80
2006,09,17,08,06,6.40
2006,09,17,08,07,6.40
2006,09,17,08,08,8.10
2006,09,17,08,09,4.80
2006,09,17,08,10,4.80
2006,09,17,08,11,4.80
2006,09,17,08,12,6.40
2006,09,17,08,13,8.10
2006,09,17,08,14,3.20
2006,09,17,08,15,4.80
2006,09,17,08,16,6.40
2006,09,17,08,17,6.40
2006,09,17,08,18,8.10
2006,09,17,08,19,6.40
2006,09,17,08,20,9.60
2006,09,17,08,21,4.80
2006,09,17,08,22,8.10
2006,09,17,08,23,9.60
2006,09,17,08,24,9.60
2006,09,17,08,25,8.10
2006,09,17,08,26,6.40
2006,09,17,08,27,11.30
2006,09,17,08,28,6.40
2006,09,17,08,29,9.60
2006,09,17,08,30,8.10
2006,09,17,08,31,6.40
2006,09,17,08,32,4.80
2006,09,17,08,33,4.80
2006,09,17,08,34,3.20
2006,09,17,08,35,8.10
2006,09,17,08,36,6.40
2006,09,17,08,37,17.70
2006,09,17,08,38,16.10
2006,09,17,08,39,6.40
2006,09,17,08,40,16.10
2006,09,17,08,41,11.30
2006,09,17,08,42,4.80
2006,09,17,08,43,8.10
2006,09,17,08,44,11.30
2006,09,17,08,45,8.10
2006,09,17,08,46,8.10
2006,09,17,08,47,4.80
2006,09,17,08,48,6.40
2006,09,17,08,49,8.10
2006,09,17,08,50,9.60
2006,09,17,08,51,8.10
2006,09,17,08,52,8.10
2006,09,17,08,53,16.10
2006,09,17,08,54,9.60
2006,09,17,08,55,8.10
2006,09,17,08,56,8.10
2006,09,17,08,57,8.10
2006,09,17,08,58,9.60
2006,09,17,08,59,17.70
2006,09,17,09,00,17.70
2006,09,17,09,01,14.50
2006,09,17,09,02,16.10
2006,09,17,09,03,9.60
2006,09,17,09,04,6.40
2006,09,17,09,05,9.60
2006,09,17,09,06,9.60
2006,09,17,09,07,6.40
2006,09,17,09,08,4.80
2006,09,17,09,09,6.40
2006,09,17,09,10,8.10
2006,09,17,09,11,8.10
2006,09,17,09,12,8.10
2006,09,17,09,13,4.80
2006,09,17,09,14,6.40
2006,09,17,09,15,19.30
2006,09,17,09,16,8.10
2006,09,17,09,17,14.50
2006,09,17,09,18,11.30
2006,09,17,09,19,6.40
2006,09,17,09,20,9.60
2006,09,17,09,21,16.10
2006,09,17,09,22,11.30
2006,09,17,09,23,12.90
2006,09,17,09,24,8.10
2006,09,17,09,25,9.60
2006,09,17,09,26,9.60
2006,09,17,09,27,8.10
2006,09,17,09,28,4.80
2006,09,17,09,29,6.40
2006,09,17,09,30,4.80
2006,09,17,09,31,9.60
2006,09,17,09,32,14.50
2006,09,17,09,33,6.40
2006,09,17,09,34,20.90
2006,09,17,09,35,14.50
2006,09,17,09,36,9.60
2006,09,17,09,37,9.60
2006,09,17,09,38,9.60
2006,09,17,09,39,8.10
2006,09,17,09,40,14.50
2006,09,17,09,41,11.30
2006,09,17,09,42,9.60
2006,09,17,09,43,14.50
2006,09,17,09,44,11.30
2006,09,17,09,45,8.10
2006,09,17,09,46,14.50
2006,09,17,09,47,9.60
2006,09,17,09,48,9.60
2006,09,17,09,49,14.50
2006,09,17,09,50,16.10
2006,09,17,09,51,8.10
2006,09,17,09,52,11.30
2006,09,17,09,53,6.40
2006,09,17,09,54,14.50
2006,09,17,09,55,8.10
2006,09,17,09,56,9.60
2006,09,17,09,57,9.60
2006,09,17,09,58,9.60
2006,09,17,09,59,9.60
2006,09,17,10,00,16.10
2006,09,17,10,01,11.30
2006,09,17,10,02,11.30
2006,09,17,10,03,8.10
2006,09,17,10,04,8.10
2006,09,17,10,05,8.10
2006,09,17,10,06,14.50
2006,09,17,10,07,6.40
2006,09,17,10,08,9.60
2006,09,17,10,09,14.50
2006,09,17,10,10,9.60
2006,09,17,10,11,19.30
2006,09,17,10,12,12.90
2006,09,17,10,13,17.70
2006,09,17,10,14,14.50
2006,09,17,10,15,17.70
2006,09,17,10,16,9.60
2006,09,17,10,17,9.60
2006,09,17,10,18,17.70
2006,09,17,10,19,17.70
2006,09,17,10,20,14.50
2006,09,17,10,21,8.10
2006,09,17,10,22,17.70
2006,09,17,10,23,16.10
2006,09,17,10,24,11.30
2006,09,17,10,25,9.60
2006,09,17,10,26,16.10
2006,09,17,10,27,22.50
2006,09,17,10,28,16.10
2006,09,17,10,29,19.30
2006,09,17,10,30,17.70
2006,09,17,10,31,17.70
2006,09,17,10,32,9.60
2006,09,17,10,33,11.30
2006,09,17,10,34,16.10
2006,09,17,10,35,19.30
2006,09,17,10,36,19.30
2006,09,17,10,37,16.10
2006,09,17,10,38,17.70
2006,09,17,10,39,16.10
2006,09,17,10,40,17.70
2006,09,17,10,41,29.00
2006,09,17,10,42,22.50
2006,09,17,10,43,17.70
2006,09,17,10,44,11.30
2006,09,17,10,45,14.50
2006,09,17,10,46,19.30
2006,09,17,10,47,19.30
2006,09,17,10,48,27.40
2006,09,17,10,49,24.20
2006,09,17,10,50,9.60
2006,09,17,10,51,22.50
2006,09,17,10,52,11.30
2006,09,17,10,53,20.90
2006,09,17,10,54,25.70
2006,09,17,10,55,16.10
2006,09,17,10,56,16.10
2006,09,17,10,57,22.50
2006,09,17,10,58,19.30
2006,09,17,10,59,19.30
2006,09,17,11,00,19.30
2006,09,17,11,01,17.70
2006,09,17,11,02,17.70
2006,09,17,11,03,19.30
2006,09,17,11,04,19.30
2006,09,17,11,05,20.90
2006,09,17,11,06,24.20
2006,09,17,11,07,32.20
2006,09,17,11,08,16.10
2006,09,17,11,09,24.20
2006,09,17,11,10,16.10
2006,09,17,11,11,22.50
2006,09,17,11,12,25.70
2006,09,17,11,13,17.70
2006,09,17,11,14,17.70
2006,09,17,11,15,19.30
2006,09,17,11,16,22.50
2006,09,17,11,17,17.70
2006,09,17,11,18,17.70
2006,09,17,11,19,22.50
2006,09,17,11,20,25.70
2006,09,17,11,21,27.40
2006,09,17,11,22,24.20
2006,09,17,11,23,25.70
2006,09,17,11,24,24.20
2006,09,17,11,25,19.30
2006,09,17,11,26,16.10
2006,09,17,11,27,17.70
2006,09,17,11,28,16.10
2006,09,17,11,29,19.30
2006,09,17,11,30,19.30
2006,09,17,11,31,29.00
2006,09,17,11,32,27.40
2006,09,17,11,33,27.40
2006,09,17,11,34,24.20
2006,09,17,11,35,22.50
2006,09,17,11,36,24.20
2006,09,17,11,37,25.70
2006,09,17,11,38,22.50
2006,09,17,11,39,16.10
2006,09,17,11,40,29.00
2006,09,17,11,41,16.10
2006,09,17,11,42,29.00
2006,09,17,11,43,33.80
2006,09,17,11,44,22.50
2006,09,17,11,45,17.70
2006,09,17,11,46,17.70
2006,09,17,11,47,22.50
2006,09,17,11,48,20.90
2006,09,17,11,49,20.90
2006,09,17,11,50,25.70
2006,09,17,11,51,22.50
2006,09,17,11,52,24.20
2006,09,17,11,53,29.00
2006,09,17,11,54,30.60
2006,09,17,11,55,24.20
2006,09,17,11,56,22.50
2006,09,17,11,57,24.20
2006,09,17,11,58,32.20
2006,09,17,11,59,30.60
2006,09,17,12,00,25.70
2006,09,17,12,01,25.70
2006,09,17,12,02,27.40
2006,09,17,12,03,20.90
2006,09,17,12,04,25.70
2006,09,17,12,05,22.50
2006,09,17,12,06,25.70
2006,09,17,12,07,27.40
2006,09,17,12,08,33.80
2006,09,17,12,09,24.20
2006,09,17,12,10,22.50
2006,09,17,12,11,22.50
2006,09,17,12,12,24.20
2006,09,17,12,13,33.80
2006,09,17,12,14,20.90
2006,09,17,12,15,20.90
2006,09,17,12,16,29.00
2006,09,17,12,17,27.40
2006,09,17,12,18,25.70
2006,09,17,12,19,30.60
2006,09,17,12,20,24.20
2006,09,17,12,21,24.20
2006,09,17,12,22,19.30
2006,09,17,12,23,32.20
2006,09,17,12,24,29.00
2006,09,17,12,25,27.40
2006,09,17,12,26,33.80
2006,09,17,12,27,30.60
2006,09,17,12,28,35.40
2006,09,17,12,29,37.00
2006,09,17,12,30,22.50
2006,09,17,12,31,37.00
2006,09,17,12,32,29.00
2006,09,17,12,33,22.50
2006,09,17,12,34,20.90
2006,09,17,12,35,27.40
2006,09,17,12,36,25.70
2006,09,17,12,37,51.50
2006,09,17,12,38,24.20
2006,09,17,12,39,20.90
2006,09,17,12,40,27.40
2006,09,17,12,41,24.20
2006,09,17,12,42,30.60
2006,09,17,12,43,25.70
2006,09,17,12,44,17.70
2006,09,17,12,45,32.20
2006,09,17,12,46,29.00
2006,09,17,12,47,27.40
2006,09,17,12,48,22.50
2006,09,17,12,49,33.80
2006,09,17,12,50,25.70
2006,09,17,12,51,27.40
2006,09,17,12,52,30.60
2006,09,17,12,53,20.90
2006,09,17,12,54,29.00
2006,09,17,12,55,16.10
2006,09,17,12,56,19.30
2006,09,17,12,57,24.20
2006,09,17,12,58,27.40
2006,09,17,12,59,14.50
2006,09,17,13,00,25.70
2006,09,17,13,01,19.30
2006,09,17,13,02,30.60
2006,09,17,13,03,20.90
2006,09,17,13,04,24.20
2006,09,17,13,05,32.20
2006,09,17,13,06,27.40
2006,09,17,13,07,25.70
2006,09,17,13,08,30.60
2006,09,17,13,09,24.20
2006,09,17,13,10,25.70
2006,09,17,13,11,22.50
2006,09,17,13,12,19.30
2006,09,17,13,13,20.90
2006,09,17,13,14,25.70
2006,09,17,13,15,22.50
2006,09,17,13,16,29.00
2006,09,17,13,17,14.50
2006,09,17,13,18,19.30
2006,09,17,13,19,22.50
2006,09,17,13,20,37.00
2006,09,17,13,21,24.20
2006,09,17,13,22,20.90
2006,09,17,13,23,20.90
2006,09,17,13,24,24.20
2006,09,17,13,25,20.90
2006,09,17,13,26,30.60
2006,09,17,13,27,25.70
2006,09,17,13,28,19.30
2006,09,17,13,29,20.90
2006,09,17,13,30,25.70
2006,09,17,13,31,29.00
2006,09,17,13,32,27.40
2006,09,17,13,33,32.20
2006,09,17,13,34,22.50
2006,09,17,13,35,16.10
2006,09,17,13,36,25.70
2006,09,17,13,37,25.70
2006,09,17,13,38,32.20
2006,09,17,13,39,25.70
2006,09,17,13,40,27.40
2006,09,17,13,41,19.30
2006,09,17,13,42,29.00
2006,09,17,13,43,33.80
2006,09,17,13,44,37.00
2006,09,17,13,45,25.70
2006,09,17,13,46,29.00
2006,09,17,13,47,32.20
2006,09,17,13,48,25.70
2006,09,17,13,49,27.40
2006,09,17,13,50,25.70
2006,09,17,13,51,33.80
2006,09,17,13,52,30.60
2006,09,17,13,53,27.40
2006,09,17,13,54,30.60
2006,09,17,13,55,20.90
2006,09,17,13,56,30.60
2006,09,17,13,57,29.00
2006,09,17,13,58,22.50
2006,09,17,13,59,24.20
2006,09,17,14,00,19.30
2006,09,17,14,01,24.20
2006,09,17,14,02,20.90
2006,09,17,14,03,25.70
2006,09,17,14,04,24.20
2006,09,17,14,05,17.70
2006,09,17,14,06,19.30
2006,09,17,14,07,19.30
2006,09,17,14,08,27.40
2006,09,17,14,09,27.40
2006,09,17,14,10,29.00
2006,09,17,14,11,25.70
2006,09,17,14,12,16.10
2006,09,17,14,13,22.50
2006,09,17,14,14,19.30
2006,09,17,14,15,25.70
2006,09,17,14,16,20.90
2006,09,17,14,17,24.20
2006,09,17,14,18,27.40
2006,09,17,14,19,20.90
2006,09,17,14,20,17.70
2006,09,17,14,21,20.90
2006,09,17,14,22,33.80
2006,09,17,14,23,20.90
2006,09,17,14,24,20.90
2006,09,17,14,25,32.20
2006,09,17,14,26,32.20
2006,09,17,14,27,32.20
2006,09,17,14,28,30.60
2006,09,17,14,29,25.70
2006,09,17,14,30,24.20
2006,09,17,14,31,20.90
2006,09,17,14,32,20.90
2006,09,17,14,33,20.90
2006,09,17,14,34,29.00
2006,09,17,14,35,27.40
2006,09,17,14,36,30.60
2006,09,17,14,37,29.00
2006,09,17,14,38,22.50
2006,09,17,14,39,35.40
2006,09,17,14,40,27.40
2006,09,17,14,41,22.50
2006,09,17,14,42,25.70
2006,09,17,14,43,24.20
2006,09,17,14,44,27.40
2006,09,17,14,45,25.70
2006,09,17,14,46,19.30
2006,09,17,14,47,19.30
2006,09,17,14,48,27.40
2006,09,17,14,49,19.30
2006,09,17,14,50,9.60
2006,09,17,14,51,16.10
2006,09,17,14,52,14.50
2006,09,17,14,53,25.70
2006,09,17,14,54,32.20
2006,09,17,14,55,19.30
2006,09,17,14,56,25.70
2006,09,17,14,57,35.40
2006,09,17,14,58,19.30
2006,09,17,14,59,22.50
2006,09,17,15,00,25.70
2006,09,17,15,01,16.10
2006,09,17,15,02,25.70
2006,09,17,15,03,25.70
2006,09,17,15,04,20.90
2006,09,17,15,05,37.00
2006,09,17,15,06,33.80
2006,09,17,15,07,22.50
2006,09,17,15,08,25.70
2006,09,17,15,09,29.00
2006,09,17,15,10,20.90
2006,09,17,15,11,25.70
2006,09,17,15,12,22.50
2006,09,17,15,13,24.20
2006,09,17,15,14,19.30
2006,09,17,15,15,17.70
2006,09,17,15,16,19.30
2006,09,17,15,17,22.50
2006,09,17,15,18,25.70
2006,09,17,15,19,29.00
2006,09,17,15,20,17.70
2006,09,17,15,21,27.40
2006,09,17,15,22,24.20
2006,09,17,15,23,19.30
2006,09,17,15,24,30.60
2006,09,17,15,25,17.70
2006,09,17,15,26,19.30
2006,09,17,15,27,16.10
2006,09,17,15,28,25.70
2006,09,17,15,29,40.20
2006,09,17,15,30,22.50
2006,09,17,15,31,20.90
2006,09,17,15,32,35.40
2006,09,17,15,33,24.20
2006,09,17,15,34,29.00
2006,09,17,15,35,27.40
2006,09,17,15,36,30.60
2006,09,17,15,37,24.20
2006,09,17,15,38,38.60
2006,09,17,15,39,29.00
2006,09,17,15,40,24.20
2006,09,17,15,41,24.20
2006,09,17,15,42,41.80
2006,09,17,15,43,33.80
2006,09,17,15,44,29.00
2006,09,17,15,45,25.70
2006,09,17,15,46,29.00
2006,09,17,15,47,32.20
2006,09,17,15,48,29.00
2006,09,17,15,49,27.40
2006,09,17,15,50,30.60
2006,09,17,15,51,32.20
2006,09,17,15,52,22.50
2006,09,17,15,53,24.20
2006,09,17,15,54,33.80
2006,09,17,15,55,32.20
2006,09,17,15,56,27.40
2006,09,17,15,57,27.40
2006,09,17,15,58,27.40
2006,09,17,15,59,41.80
2006,09,17,16,00,38.60
2006,09,17,16,01,33.80
2006,09,17,16,02,38.60
2006,09,17,16,03,35.40
2006,09,17,16,04,32.20
2006,09,17,16,05,30.60
2006,09,17,16,06,30.60
2006,09,17,16,07,30.60
2006,09,17,16,08,25.70
2006,09,17,16,09,19.30
2006,09,17,16,10,29.00
2006,09,17,16,11,35.40
2006,09,17,16,12,30.60
2006,09,17,16,13,30.60
2006,09,17,16,14,24.20
2006,09,17,16,15,25.70
2006,09,17,16,16,40.20
2006,09,17,16,17,22.50
2006,09,17,16,18,22.50
2006,09,17,16,19,20.90
2006,09,17,16,20,37.00
2006,09,17,16,21,33.80
2006,09,17,16,22,32.20
2006,09,17,16,23,22.50
2006,09,17,16,24,25.70
2006,09,17,16,25,35.40
2006,09,17,16,26,20.90
2006,09,17,16,27,35.40
2006,09,17,16,28,27.40
2006,09,17,16,29,30.60
2006,09,17,16,30,27.40
2006,09,17,16,31,35.40
2006,09,17,16,32,25.70
2006,09,17,16,33,27.40
2006,09,17,16,34,32.20
2006,09,17,16,35,25.70
2006,09,17,16,36,25.70
2006,09,17,16,37,29.00
2006,09,17,16,38,40.20
2006,09,17,16,39,22.50
2006,09,17,16,40,35.40
2006,09,17,16,41,27.40
2006,09,17,16,42,29.00
2006,09,17,16,43,29.00
2006,09,17,16,44,30.60
2006,09,17,16,45,25.70
2006,09,17,16,46,33.80
2006,09,17,16,47,27.40
2006,09,17,16,48,27.40
2006,09,17,16,49,32.20
2006,09,17,16,50,33.80
2006,09,17,16,51,40.20
2006,09,17,16,52,32.20
2006,09,17,16,53,29.00
2006,09,17,16,54,32.20
2006,09,17,16,55,41.80
2006,09,17,16,56,25.70
2006,09,17,16,57,27.40
2006,09,17,16,58,29.00
2006,09,17,16,59,33.80
2006,09,17,17,00,20.90
2006,09,17,17,01,9.60
2006,09,17,17,02,22.50
2006,09,17,17,03,19.30
2006,09,17,17,04,25.70
2006,09,17,17,05,20.90
2006,09,17,17,06,24.20
2006,09,17,17,07,30.60
2006,09,17,17,08,30.60
2006,09,17,17,09,19.30
2006,09,17,17,10,24.20
2006,09,17,17,11,20.90
2006,09,17,17,12,35.40
2006,09,17,17,13,22.50
2006,09,17,17,14,20.90
2006,09,17,17,15,32.20
2006,09,17,17,16,29.00
2006,09,17,17,17,30.60
2006,09,17,17,18,37.00
2006,09,17,17,19,33.80
2006,09,17,17,20,27.40
2006,09,17,17,21,33.80
2006,09,17,17,22,30.60
2006,09,17,17,23,27.40
2006,09,17,17,24,20.90
2006,09,17,17,25,14.50
2006,09,17,17,26,33.80
2006,09,17,17,27,29.00
2006,09,17,17,28,27.40
2006,09,17,17,29,30.60
2006,09,17,17,30,22.50
2006,09,17,17,31,27.40
2006,09,17,17,32,24.20
2006,09,17,17,33,33.80
2006,09,17,17,34,27.40
2006,09,17,17,35,30.60
2006,09,17,17,36,24.20
2006,09,17,17,37,29.00
2006,09,17,17,38,14.50
2006,09,17,17,39,19.30
2006,09,17,17,40,25.70
2006,09,17,17,41,20.90
2006,09,17,17,42,17.70
2006,09,17,17,43,30.60
2006,09,17,17,44,19.30